Flag for U.S.A. Weather past 2 weeks in Augusta, Maine, U.S.A.

Now
24 °F

Clear.


Feels Like: 16 °F
Forecast: 21 / 36 °F
Wind: 7 mph from Northwest

Location: Augusta State Airport

Current Time: Apr 1, 2015 at 5:04:18 AM

Latest Report: Apr 1, 2015 at 3:53 AM


Visibility: 10 mi

Pressure: 29.83 "Hg

Humidity: 48%

Dew point: 7 °F

Location of AugustaLocation

Historic Weather in Augusta — Graph

°F

Augusta temperature yesterday

Maximum temperature yesterday: 40 °F (at 3:53 PM)
Minimum temperature yesterday: 27 °F (at 11:53 PM)
Average temperature yesterday: 35 °F

Past Weeks' High & Low Weather Summary

 TemperatureHumidityPressure
High45 °F (Mar 27, 2:53 PM)100% (Mar 26, 6:53 PM)30.40 "Hg (Mar 26, 6:53 PM)
Low7 °F (Mar 23, 5:53 AM)20% (Mar 29, 5:53 PM)29.35 "Hg (Mar 17, 3:53 PM)
Average28 °F57%29.93 "Hg
* Reported Mar 17 3:53 AM — Apr 1 3:53 AM, Augusta, Weather by CustomWeather, © 2015

Note: Actual official high and low records may vary slightly from our data, if they occured in-between our weather recording intervals... More about our weather records

Advertising

Augusta weather history for previous 24 hours

 ConditionsComfort  
Time TempWeatherWind HumidityBarometerVisibility
3:53 AM
Wed, Apr 1
24 °FClear.7 mph48%29.83 "Hg10 mi
2:53 AM24 °FClear.6 mph48%29.83 "Hg10 mi
1:53 AM25 °FClear.5 mph46%29.82 "Hg10 mi
12:53 AM26 °FClear.7 mph42%29.82 "Hg10 mi
11:53 PM
Tue, Mar 31
27 °FClear.7 mph42%29.82 "Hg10 mi
10:53 PM30 °FClear.9 mph33%29.80 "Hg10 mi
9:53 PM31 °FClear.10 mph36%29.79 "Hg10 mi
8:53 PM33 °FClear.8 mph33%29.77 "Hg10 mi
7:53 PM34 °FSunny.6 mph35%29.75 "Hg10 mi
6:53 PM39 °FSunny.8 mph28%29.71 "Hg10 mi
5:53 PM40 °FSunny.10 mph32%29.68 "Hg10 mi
4:53 PM40 °FSunny.9 mph35%29.67 "Hg10 mi
3:53 PM40 °FSunny.10 mph36%29.66 "Hg10 mi
2:53 PM39 °FSunny.12 mph41%29.66 "Hg10 mi
1:53 PM39 °FSunny.14 mph41%29.67 "Hg10 mi
12:53 PM38 °FPassing clouds.16 mph45%29.67 "Hg10 mi
11:53 AM37 °FSunny.13 mph48%29.68 "Hg10 mi
10:53 AM36 °FSunny.12 mph52%29.68 "Hg10 mi
9:53 AM35 °FPassing clouds.14 mph54%29.68 "Hg10 mi
8:53 AM34 °FOvercast.12 mph59%29.66 "Hg10 mi
7:53 AM34 °FPartly sunny.9 mph64%29.64 "Hg10 mi
6:53 AM32 °FClear.8 mph69%29.63 "Hg10 mi
5:53 AM32 °FClear.7 mph73%29.61 "Hg10 mi
Weather by CustomWeather, © 2015

See weather overviewHow to use our weather pages